Location: Trenton
(45.6167°N, 62.6167°W)
Time: 01:30:50
(UTC+00:00)

Nauka - Pass Details

Date: 28 September 2021
Orbit: 417 x 423 km, 51.6° (Epoch: 24 October)

Event Time Altitude Azimuth Distance (km) Brightness Sun altitude
Rises 23:38:36 0° 297° (WNW) 2,367 ? -18.6°
Reaches altitude 10° 23:40:47 10° 305° (NW) 1,502 ? -19.0°
Maximum altitude 23:44:00 41° 18° (NNE) 618 ? -19.5°
Enters shadow 23:44:08 41° 25° (NNE) 621 ? -19.5°
